Time,TemperatureF,DewpointF,PressureIn,WindDirection,WindDirectionDegrees,WindSpeedMPH,WindSpeedGustMPH,Humidity,HourlyPrecipIn,Conditions,Clouds,dailyrainin,SoftwareType,DateUTC
2013-03-04 00:01:00,22.0,22.0,-100.00,NNE,15,6.0,9.0,99,-99.99,,,-99.99,,2013-03-04 05:01:00,
2013-03-04 00:11:00,22.0,22.0,-100.00,North,0,4.0,9.0,99,-99.99,,,-99.99,,2013-03-04 05:11:00,
2013-03-04 00:22:00,22.0,22.0,-100.00,North,0,7.0,9.0,99,-99.99,,,-99.99,,2013-03-04 05:22:00,
2013-03-04 00:32:00,22.0,22.0,-100.00,NNE,15,6.0,9.0,99,-99.99,,,-99.99,,2013-03-04 05:32:00,
2013-03-04 00:42:00,22.0,22.0,-100.00,North,5,5.0,7.0,99,-99.99,,,-99.99,,2013-03-04 05:42:00,
2013-03-04 00:52:00,22.0,22.0,-100.00,NNE,15,4.0,10.0,99,-99.99,,,-99.99,,2013-03-04 05:52:00,
2013-03-04 01:02:00,22.0,22.0,-100.00,North,5,4.0,7.0,100,-99.99,,,-99.99,,2013-03-04 06:02:00,
2013-03-04 01:11:00,22.0,22.0,-100.00,North,0,4.0,7.0,99,-99.99,,,-99.99,,2013-03-04 06:11:00,
2013-03-04 01:21:00,22.0,22.0,-100.00,North,0,4.0,6.0,99,-99.99,,,-99.99,,2013-03-04 06:21:00,
2013-03-04 01:32:00,22.0,22.0,-100.00,North,0,2.0,4.0,99,-99.99,,,-99.99,,2013-03-04 06:32:00,
2013-03-04 01:42:00,22.0,22.0,-100.00,North,355,1.0,6.0,99,-99.99,,,-99.99,,2013-03-04 06:42:00,
2013-03-04 01:51:00,22.0,22.0,-100.00,North,10,2.0,5.0,99,-99.99,,,-99.99,,2013-03-04 06:51:00,
2013-03-04 02:02:00,22.0,22.0,-100.00,North,0,3.0,5.0,99,-99.99,,,-99.99,,2013-03-04 07:02:00,
2013-03-04 02:11:00,22.0,22.0,-100.00,North,10,2.0,4.0,99,-99.99,,,-99.99,,2013-03-04 07:11:00,
2013-03-04 02:21:00,22.0,22.0,-100.00,NNW,345,3.0,4.0,99,-99.99,,,-99.99,,2013-03-04 07:21:00,
2013-03-04 02:32:00,23.0,22.0,-100.00,NW,320,3.0,6.0,99,-99.99,,,-99.99,,2013-03-04 07:32:00,
2013-03-04 02:42:00,23.0,22.0,-100.00,WNW,295,3.0,6.0,98,-99.99,,,-99.99,,2013-03-04 07:42:00,
2013-03-04 02:52:00,23.0,22.0,-100.00,NW,305,4.0,6.0,98,-99.99,,,-99.99,,2013-03-04 07:52:00,
2013-03-04 03:02:00,23.0,22.0,-100.00,NW,325,4.0,6.0,98,-99.99,,,-99.99,,2013-03-04 08:02:00,
2013-03-04 03:11:00,23.0,23.0,-100.00,NNW,335,4.0,7.0,98,-99.99,,,-99.99,,2013-03-04 08:11:00,
2013-03-04 03:22:00,23.0,23.0,-100.00,WNW,300,4.0,7.0,98,-99.99,,,-99.99,,2013-03-04 08:22:00,
2013-03-04 03:32:00,23.0,23.0,-100.00,North,0,2.0,6.0,98,-99.99,,,-99.99,,2013-03-04 08:32:00,
2013-03-04 03:42:00,23.0,23.0,-100.00,NW,325,4.0,5.0,98,-99.99,,,-99.99,,2013-03-04 08:42:00,
2013-03-04 03:52:00,23.0,22.0,-100.00,North,0,4.0,7.0,98,-99.99,,,-99.99,,2013-03-04 08:52:00,
2013-03-04 04:02:00,23.0,22.0,-100.00,North,0,2.0,5.0,99,-99.99,,,-99.99,,2013-03-04 09:02:00,
2013-03-04 04:11:00,22.0,22.0,-100.00,NW,325,2.0,4.0,99,-99.99,,,-99.99,,2013-03-04 09:11:00,
2013-03-04 04:21:00,22.0,22.0,-100.00,NW,325,2.0,4.0,99,-99.99,,,-99.99,,2013-03-04 09:21:00,
2013-03-04 04:32:00,22.0,22.0,-100.00,NW,305,2.0,5.0,99,-99.99,,,-99.99,,2013-03-04 09:32:00,
2013-03-04 04:42:00,22.0,22.0,-100.00,WNW,290,2.0,6.0,99,-99.99,,,-99.99,,2013-03-04 09:42:00,
2013-03-04 04:52:00,22.0,22.0,-100.00,West,275,2.0,5.0,99,-99.99,,,-99.99,,2013-03-04 09:52:00,
2013-03-04 05:01:00,22.0,22.0,-100.00,West,275,2.0,5.0,99,-99.99,,,-99.99,,2013-03-04 10:01:00,
2013-03-04 05:11:00,21.0,21.0,-100.00,West,270,4.0,7.0,99,-99.99,,,-99.99,,2013-03-04 10:11:00,
2013-03-04 05:22:00,21.0,21.0,-100.00,West,275,4.0,6.0,99,-99.99,,,-99.99,,2013-03-04 10:22:00,
2013-03-04 05:32:00,20.0,20.0,-100.00,West,280,3.0,5.0,99,-99.99,,,-99.99,,2013-03-04 10:32:00,
2013-03-04 05:42:00,20.0,20.0,-100.00,West,275,2.0,4.0,99,-99.99,,,-99.99,,2013-03-04 10:42:00,
2013-03-04 05:52:00,20.0,20.0,-100.00,West,275,2.0,3.0,99,-99.99,,,-99.99,,2013-03-04 10:52:00,
2013-03-04 06:02:00,19.0,19.0,-100.00,West,280,1.0,3.0,99,-99.99,,,-99.99,,2013-03-04 11:02:00,
2013-03-04 06:11:00,19.0,19.0,-100.00,West,275,4.0,4.0,99,-99.99,,,-99.99,,2013-03-04 11:11:00,
2013-03-04 06:22:00,20.0,20.0,-100.00,WNW,300,2.0,4.0,99,-99.99,,,-99.99,,2013-03-04 11:22:00,
2013-03-04 06:32:00,21.0,21.0,-100.00,West,280,2.0,4.0,99,-99.99,,,-99.99,,2013-03-04 11:32:00,
2013-03-04 06:42:00,21.0,21.0,-100.00,WNW,285,2.0,4.0,99,-99.99,,,-99.99,,2013-03-04 11:42:00,
2013-03-04 06:52:00,22.0,22.0,-100.00,NNW,330,3.0,7.0,99,-99.99,,,-99.99,,2013-03-04 11:52:00,
2013-03-04 07:02:00,23.0,22.0,-100.00,NW,325,5.0,9.0,99,-99.99,,,-99.99,,2013-03-04 12:02:00,
2013-03-04 07:11:00,23.0,23.0,-100.00,NW,320,5.0,8.0,99,-99.99,,,-99.99,,2013-03-04 12:11:00,
2013-03-04 07:22:00,23.0,23.0,-100.00,NW,325,7.0,11.0,99,-99.99,,,-99.99,,2013-03-04 12:22:00,
2013-03-04 07:32:00,23.0,23.0,-100.00,NNW,345,4.0,8.0,99,-99.99,,,-99.99,,2013-03-04 12:32:00,
2013-03-04 07:42:00,23.0,23.0,-100.00,NNW,345,3.0,11.0,99,-99.99,,,-99.99,,2013-03-04 12:42:00,
2013-03-04 07:52:00,23.0,23.0,-100.00,NW,320,4.0,7.0,99,-99.99,,,-99.99,,2013-03-04 12:52:00,
2013-03-04 08:02:00,23.0,23.0,-100.00,NW,320,5.0,9.0,99,-99.99,,,-99.99,,2013-03-04 13:02:00,
2013-03-04 08:11:00,23.0,23.0,-100.00,NNW,340,4.0,7.0,99,-99.99,,,-99.99,,2013-03-04 13:11:00,
2013-03-04 08:21:00,23.0,23.0,-100.00,WNW,300,3.0,7.0,99,-99.99,,,-99.99,,2013-03-04 13:21:00,
2013-03-04 08:32:00,23.0,23.0,-100.00,NW,325,4.0,8.0,99,-99.99,,,-99.99,,2013-03-04 13:32:00,
2013-03-04 08:42:00,24.0,24.0,-100.00,NW,320,4.0,9.0,99,-99.99,,,-99.99,,2013-03-04 13:42:00,
2013-03-04 08:52:00,24.0,24.0,-100.00,NNW,345,3.0,9.0,99,-99.99,,,-99.99,,2013-03-04 13:52:00,
2013-03-04 09:01:00,24.0,24.0,-100.00,WNW,300,7.0,10.0,99,-99.99,,,-99.99,,2013-03-04 14:01:00,
2013-03-04 09:11:00,24.0,24.0,-100.00,NNW,330,5.0,7.0,99,-99.99,,,-99.99,,2013-03-04 14:11:00,
2013-03-04 09:22:00,24.0,24.0,-100.00,NNW,335,6.0,9.0,99,-99.99,,,-99.99,,2013-03-04 14:22:00,
2013-03-04 09:32:00,25.0,25.0,-100.00,North,10,5.0,9.0,99,-99.99,,,-99.99,,2013-03-04 14:32:00,
2013-03-04 09:42:00,25.0,25.0,-100.00,NNW,340,5.0,9.0,99,-99.99,,,-99.99,,2013-03-04 14:42:00,
2013-03-04 09:52:00,25.0,25.0,-100.00,NNW,340,5.0,9.0,99,-99.99,,,-99.99,,2013-03-04 14:52:00,
2013-03-04 10:02:00,26.0,26.0,-100.00,North,5,6.0,10.0,98,-99.99,,,-99.99,,2013-03-04 15:02:00,
2013-03-04 10:11:00,27.0,26.0,-100.00,NNW,335,4.0,10.0,96,-99.99,,,-99.99,,2013-03-04 15:11:00,
2013-03-04 10:22:00,27.0,26.0,-100.00,NW,315,7.0,11.0,94,-99.99,,,-99.99,,2013-03-04 15:22:00,
2013-03-04 10:32:00,26.0,25.0,-100.00,NW,325,6.0,12.0,93,-99.99,,,-99.99,,2013-03-04 15:32:00,
2013-03-04 10:42:00,28.0,26.0,-100.00,NW,310,6.0,11.0,92,-99.99,,,-99.99,,2013-03-04 15:42:00,
2013-03-04 10:52:00,27.0,25.0,-100.00,NW,325,6.0,11.0,91,-99.99,,,-99.99,,2013-03-04 15:52:00,
2013-03-04 11:03:00,27.0,25.0,-100.00,NW,320,7.0,11.0,91,-99.99,,,-99.99,,2013-03-04 16:03:00,
2013-03-04 11:11:00,28.0,26.0,-100.00,NW,320,4.0,11.0,90,-99.99,,,-99.99,,2013-03-04 16:11:00,
2013-03-04 11:21:00,27.0,24.0,-100.00,North,5,5.0,12.0,89,-99.99,,,-99.99,,2013-03-04 16:21:00,
2013-03-04 11:32:00,26.0,24.0,-100.00,North,0,7.0,12.0,89,-99.99,,,-99.99,,2013-03-04 16:32:00,
2013-03-04 11:42:00,28.0,25.0,-100.00,WNW,295,5.0,11.0,88,-99.99,,,-99.99,,2013-03-04 16:42:00,
2013-03-04 11:52:00,27.0,24.0,-100.00,NNW,340,7.0,12.0,86,-99.99,,,-99.99,,2013-03-04 16:52:00,
2013-03-04 12:02:00,29.0,25.0,-100.00,NW,305,7.0,12.0,85,-99.99,,,-99.99,,2013-03-04 17:02:00,
2013-03-04 12:11:00,27.0,23.0,-100.00,NW,325,9.0,14.0,84,-99.99,,,-99.99,,2013-03-04 17:11:00,
2013-03-04 12:22:00,28.0,24.0,-100.00,NW,310,7.0,12.0,84,-99.99,,,-99.99,,2013-03-04 17:22:00,
2013-03-04 12:32:00,29.0,24.0,-100.00,NW,325,7.0,11.0,82,-99.99,,,-99.99,,2013-03-04 17:32:00,
2013-03-04 12:42:00,29.0,24.0,-100.00,NW,315,6.0,12.0,81,-99.99,,,-99.99,,2013-03-04 17:42:00,
2013-03-04 12:52:00,29.0,22.0,-100.00,North,0,6.0,12.0,75,-99.99,,,-99.99,,2013-03-04 17:52:00,
2013-03-04 13:02:00,29.0,22.0,-100.00,NNW,340,6.0,12.0,73,-99.99,,,-99.99,,2013-03-04 18:02:00,
2013-03-04 13:11:00,29.0,20.0,-100.00,NNW,340,8.0,13.0,70,-99.99,,,-99.99,,2013-03-04 18:11:00,
2013-03-04 13:22:00,29.0,21.0,-100.00,North,0,7.0,13.0,70,-99.99,,,-99.99,,2013-03-04 18:22:00,
2013-03-04 13:32:00,30.0,21.0,-100.00,WNW,300,9.0,13.0,69,-99.99,,,-99.99,,2013-03-04 18:32:00,
2013-03-04 13:42:00,29.0,20.0,-100.00,NNW,345,7.0,14.0,66,-99.99,,,-99.99,,2013-03-04 18:42:00,
2013-03-04 13:52:00,29.0,20.0,-100.00,NNW,345,7.0,14.0,67,-99.99,,,-99.99,,2013-03-04 18:52:00,
2013-03-04 14:02:00,30.0,20.0,-100.00,NNW,335,7.0,14.0,66,-99.99,,,-99.99,,2013-03-04 19:02:00,
2013-03-04 14:11:00,29.0,21.0,-100.00,NW,315,10.0,13.0,71,-99.99,,,-99.99,,2013-03-04 19:11:00,
2013-03-04 14:22:00,29.0,22.0,-100.00,North,0,8.0,13.0,73,-99.99,,,-99.99,,2013-03-04 19:22:00,
2013-03-04 14:32:00,29.0,23.0,-100.00,NNW,335,8.0,14.0,75,-99.99,,,-99.99,,2013-03-04 19:32:00,
2013-03-04 14:42:00,30.0,23.0,-100.00,NW,310,7.0,13.0,77,-99.99,,,-99.99,,2013-03-04 19:42:00,
2013-03-04 14:52:00,30.0,24.0,-100.00,NW,320,7.0,12.0,79,-99.99,,,-99.99,,2013-03-04 19:52:00,
2013-03-04 15:02:00,30.0,24.0,-100.00,NW,325,7.0,12.0,79,-99.99,,,-99.99,,2013-03-04 20:02:00,
2013-03-04 15:11:00,29.0,24.0,-100.00,NW,315,7.0,12.0,79,-99.99,,,-99.99,,2013-03-04 20:11:00,
2013-03-04 15:22:00,29.0,24.0,-100.00,NNW,340,9.0,14.0,78,-99.99,,,-99.99,,2013-03-04 20:22:00,
2013-03-04 15:32:00,29.0,23.0,-100.00,NNW,340,7.0,14.0,77,-99.99,,,-99.99,,2013-03-04 20:32:00,
2013-03-04 15:42:00,30.0,23.0,-100.00,WNW,285,4.0,10.0,76,-99.99,,,-99.99,,2013-03-04 20:42:00,
2013-03-04 15:52:00,30.0,24.0,-100.00,North,0,6.0,9.0,76,-99.99,,,-99.99,,2013-03-04 20:52:00,
2013-03-04 16:02:00,30.0,23.0,-100.00,NW,325,7.0,10.0,75,-99.99,,,-99.99,,2013-03-04 21:02:00,
2013-03-04 16:12:00,30.0,23.0,-100.00,North,0,6.0,11.0,75,-99.99,,,-99.99,,2013-03-04 21:12:00,
2013-03-04 16:22:00,30.0,23.0,-100.00,NNW,345,4.0,9.0,74,-99.99,,,-99.99,,2013-03-04 21:22:00,
2013-03-04 16:32:00,31.0,24.0,-100.00,North,0,6.0,9.0,76,-99.99,,,-99.99,,2013-03-04 21:32:00,
2013-03-04 16:42:00,30.0,23.0,-100.00,WNW,290,5.0,9.0,74,-99.99,,,-99.99,,2013-03-04 21:42:00,
2013-03-04 16:52:00,30.0,24.0,-100.00,North,355,7.0,11.0,77,-99.99,,,-99.99,,2013-03-04 21:52:00,
2013-03-04 17:02:00,30.0,24.0,-100.00,North,0,5.0,10.0,77,-99.99,,,-99.99,,2013-03-04 22:02:00,
2013-03-04 17:12:00,30.0,24.0,-100.00,NW,305,6.0,9.0,76,-99.99,,,-99.99,,2013-03-04 22:12:00,
2013-03-04 17:22:00,30.0,23.0,-100.00,North,0,4.0,10.0,75,-99.99,,,-99.99,,2013-03-04 22:22:00,
2013-03-04 17:32:00,30.0,23.0,-100.00,NW,320,6.0,9.0,76,-99.99,,,-99.99,,2013-03-04 22:32:00,
2013-03-04 17:42:00,30.0,23.0,-100.00,NNW,335,4.0,9.0,76,-99.99,,,-99.99,,2013-03-04 22:42:00,
2013-03-04 17:52:00,29.0,23.0,-100.00,NNW,335,3.0,8.0,77,-99.99,,,-99.99,,2013-03-04 22:52:00,
2013-03-04 18:02:00,29.0,23.0,-100.00,NNW,330,4.0,7.0,79,-99.99,,,-99.99,,2013-03-04 23:02:00,
2013-03-04 18:11:00,29.0,23.0,-100.00,NNW,340,2.0,7.0,80,-99.99,,,-99.99,,2013-03-04 23:11:00,
2013-03-04 18:22:00,28.0,23.0,-100.00,North,5,4.0,6.0,81,-99.99,,,-99.99,,2013-03-04 23:22:00,
2013-03-04 18:32:00,28.0,23.0,-100.00,NNE,20,4.0,7.0,83,-99.99,,,-99.99,,2013-03-04 23:32:00,
2013-03-04 18:42:00,27.0,23.0,-100.00,NNE,15,1.0,6.0,84,-99.99,,,-99.99,,2013-03-04 23:42:00,
2013-03-04 18:52:00,27.0,23.0,-100.00,NE,35,3.0,7.0,86,-99.99,,,-99.99,,2013-03-04 23:52:00,
2013-03-04 19:02:00,26.0,23.0,-100.00,NNE,30,3.0,5.0,86,-99.99,,,-99.99,,2013-03-05 00:02:00,
2013-03-04 19:12:00,26.0,23.0,-100.00,NNE,30,1.0,4.0,87,-99.99,,,-99.99,,2013-03-05 00:12:00,
2013-03-04 19:22:00,26.0,23.0,-100.00,NNE,30,2.0,3.0,87,-99.99,,,-99.99,,2013-03-05 00:22:00,
2013-03-04 19:32:00,26.0,23.0,-100.00,NNE,20,1.0,3.0,88,-99.99,,,-99.99,,2013-03-05 00:32:00,
2013-03-04 19:42:00,26.0,23.0,-100.00,NNE,20,2.0,3.0,88,-99.99,,,-99.99,,2013-03-05 00:42:00,
2013-03-04 19:51:00,26.0,23.0,-100.00,NNW,345,0.0,2.0,88,-99.99,,,-99.99,,2013-03-05 00:51:00,
2013-03-04 20:02:00,25.0,23.0,-100.00,North,5,0.0,1.0,89,-99.99,,,-99.99,,2013-03-05 01:02:00,
2013-03-04 20:12:00,25.0,22.0,-100.00,North,10,0.0,1.0,89,-99.99,,,-99.99,,2013-03-05 01:12:00,
2013-03-04 20:22:00,25.0,22.0,-100.00,North,5,1.0,1.0,89,-99.99,,,-99.99,,2013-03-05 01:22:00,
2013-03-04 20:32:00,25.0,23.0,-100.00,NNE,15,0.0,1.0,90,-99.99,,,-99.99,,2013-03-05 01:32:00,
2013-03-04 20:42:00,25.0,23.0,-100.00,NNE,15,1.0,1.0,90,-99.99,,,-99.99,,2013-03-05 01:42:00,
2013-03-04 20:52:00,25.0,23.0,-100.00,NE,35,0.0,1.0,90,-99.99,,,-99.99,,2013-03-05 01:52:00,
2013-03-04 21:01:00,25.0,23.0,-100.00,NE,55,1.0,2.0,91,-99.99,,,-99.99,,2013-03-05 02:01:00,
2013-03-04 21:11:00,25.0,23.0,-100.00,East,95,1.0,2.0,91,-99.99,,,-99.99,,2013-03-05 02:11:00,
2013-03-04 21:22:00,25.0,23.0,-100.00,East,85,0.0,1.0,91,-99.99,,,-99.99,,2013-03-05 02:22:00,
2013-03-04 21:32:00,25.0,23.0,-100.00,SE,140,0.0,1.0,91,-99.99,,,-99.99,,2013-03-05 02:32:00,
2013-03-04 21:42:00,25.0,22.0,-100.00,SSE,150,0.0,0.0,91,-99.99,,,-99.99,,2013-03-05 02:42:00,
2013-03-04 21:52:00,25.0,22.0,-100.00,ESE,105,0.0,0.0,91,-99.99,,,-99.99,,2013-03-05 02:52:00,
2013-03-04 22:02:00,25.0,22.0,-100.00,ESE,105,0.0,0.0,91,-99.99,,,-99.99,,2013-03-05 03:02:00,
2013-03-04 22:12:00,24.0,22.0,-100.00,SSE,155,0.0,0.0,91,-99.99,,,-99.99,,2013-03-05 03:12:00,
2013-03-04 22:22:00,23.0,21.0,-100.00,SSE,155,0.0,0.0,91,-99.99,,,-99.99,,2013-03-05 03:22:00,
2013-03-04 22:32:00,23.0,21.0,-100.00,SSE,155,0.0,0.0,91,-99.99,,,-99.99,,2013-03-05 03:32:00,
2013-03-04 22:42:00,24.0,22.0,-100.00,WSW,240,0.0,0.0,92,-99.99,,,-99.99,,2013-03-05 03:42:00,
2013-03-04 22:52:00,23.0,21.0,-100.00,WSW,240,0.0,0.0,92,-99.99,,,-99.99,,2013-03-05 03:52:00,
2013-03-04 23:02:00,23.0,21.0,-100.00,WSW,250,1.0,2.0,92,-99.99,,,-99.99,,2013-03-05 04:02:00,
2013-03-04 23:12:00,23.0,21.0,-100.00,WSW,250,0.0,1.0,93,-99.99,,,-99.99,,2013-03-05 04:12:00,
2013-03-04 23:22:00,23.0,21.0,-100.00,South,185,0.0,0.0,93,-99.99,,,-99.99,,2013-03-05 04:22:00,
2013-03-04 23:32:00,23.0,21.0,-100.00,WSW,250,0.0,1.0,94,-99.99,,,-99.99,,2013-03-05 04:32:00,
2013-03-04 23:42:00,22.0,21.0,-100.00,WSW,250,0.0,0.0,94,-99.99,,,-99.99,,2013-03-05 04:42:00,
2013-03-04 23:52:00,22.0,21.0,-100.00,WSW,250,0.0,0.0,94,-99.99,,,-99.99,,2013-03-05 04:52:00,